Regional Weather Roundup
Issued by NWS Charleston, WV

Home | Current Version | Previous Version | Graphics & Text | Print | Product List | Glossary On
Versions: 1 2 3 4 5 6 7 8 9 10 11 12 13 14 15 16 17 18 19 20 21 22 23 24 25 26 27 28 29 30 31 32 33 34 35 36 37 38 39 40 41 42 43 44 45 46 47 48 49 50
000
ASUS41 KRLX 260810
RWRRLX
West Virginia Regional Weather Roundup
National Weather Service Charleston WV
400 AM EDT SUN MAR 26 2017

Note: "fair" indicates few or no clouds below 12,000 feet with no
significant weather and/or obstructions to visibility.

WVZ003-260900-
Northern Panhandle of West Virginia

CITY           SKY/WX    TMP DP  RH WIND       PRES   REMARKS
WHEELING       CLOUDY    62  48  60 E10       30.07F
$$

WVZ009-260900-
Northwest West Virginia

CITY           SKY/WX    TMP DP  RH WIND       PRES   REMARKS
PARKERSBURG    CLOUDY    63  48  58 SE6       30.06F
$$

WVZ006-260900-
Western West Virginia

CITY           SKY/WX    TMP DP  RH WIND       PRES   REMARKS
HUNTINGTON     PTCLDY    65  45  48 S7        30.01F
$$

WVZ015-260900-
West Central West Virginia

CITY           SKY/WX    TMP DP  RH WIND       PRES   REMARKS
CHARLESTON     CLOUDY    60  47  61 CALM      30.04F
$$

WVZ022-031-260900-
North Central West Virginia

CITY           SKY/WX    TMP DP  RH WIND       PRES   REMARKS
CLARKSBURG     CLEAR     58  47  66 SE3       30.09F
MORGANTOWN     MOCLDY    63  48  58 E7        30.11F
$$

WVZ025-035-042-045-260900-
Southern West Virginia

CITY           SKY/WX    TMP DP  RH WIND       PRES   REMARKS
BECKLEY        CLOUDY    55  44  66 SE7       30.12F
LOGAN            N/A     63  46  55 CALM      30.06F
BLUEFIELD      PTCLDY    55  45  68 S12G21    30.13F
LEWISBURG      MOCLDY    47  43  86 CALM      30.14F
$$

WVZ047-260900-
Northern Mountains of West Virginia

CITY           SKY/WX    TMP DP  RH WIND       PRES   REMARKS
ELKINS         CLEAR     47  43  86 CALM      30.13F
$$

WVZ052-260900-
Eastern Panhandle of West Virginia

CITY           SKY/WX    TMP DP  RH WIND       PRES   REMARKS
MARTINSBURG    MOCLDY    53  45  74 E8        30.22R
PETERSBURG     MOCLDY    52  49  92 W3        30.16S
$$



USA.gov is the U.S. government's official web portal to all federal, state and local government web resources and services.